Date String (YYYY-MM-DD hh:mm:ss) UTC,Instrument flags,absolute air pressure of the measurement (hPa),sample flow rate (lpm),inlet stack bypass flow (lpm),air temperature of the measurement (°C),ambient temperature measured by the external sensor (°C),aerosol sample conditioner tube jacket temperature (°C),OPC LED temperature (°C),internal box temperature (°C),relative humidity of the measurement (%),span deviation,mass concentration of particles derived from Lorenz-Mie calculation of OPC scattering (μg/m³),mass concentration of particles derived from Lorenz-Mie calculation of OPC scattering (μg/m³),mass concentration of particles derived from Lorenz-Mie calculation of OPC scattering (μg/m³)
DateTimeUTC,F1_M11,P_M11,Q1_M11,Q2_M11,T1_M11,T2_M11,T3_M11,T4_M11,T5_M11,U1_M11,ZSPAN_M11,X2_M11,X0_M11,X1_M11
2023-09-08 00:00:00,SystemResetWarning,0831.9,4.99,000.00,027.8,026.1,000.0,035.9,029.4,17.1,0000.0,0000.99,0003.42,0000.72
2023-09-08 00:01:00,SystemResetWarning,0832.2,4.98,000.00,027.7,024.6,000.0,035.8,028.9,17.5,0000.0,0000.99,0002.52,0000.72
2023-09-08 00:02:00,SystemResetWarning,0832.1,5.03,000.00,027.6,024.2,000.0,035.8,028.9,17.9,0000.0,0001.02,0002.59,0000.72
2023-09-08 00:03:00,SystemResetWarning,0831.8,4.99,000.00,027.6,024.5,000.0,035.8,028.9,17.8,0000.0,0001.04,0002.63,0000.72
2023-09-08 00:04:00,SystemResetWarning,0831.8,5.01,000.00,027.5,024.9,000.0,035.8,028.9,17.8,0000.0,0001.05,0002.34,0000.73
2023-09-08 00:05:00,SystemResetWarning,0831.9,5.00,000.00,027.6,025.3,000.0,035.8,029.1,17.9,0000.0,0001.15,0003.45,0000.76
2023-09-08 00:06:00,SystemResetWarning,0831.9,5.00,000.00,027.6,025.8,000.0,035.8,029.3,17.5,0000.0,0001.30,0004.99,0000.80
2023-09-08 00:07:00,SystemResetWarning,0832.0,4.99,000.00,027.7,026.2,000.0,035.8,029.4,17.6,0000.0,0001.31,0004.74,0000.83
2023-09-08 00:08:00,SystemResetWarning,0832.0,4.99,000.00,027.7,026.4,000.0,035.8,029.5,17.9,0000.0,0001.37,0004.82,0000.85
2023-09-08 00:09:00,SystemResetWarning,0832.0,4.99,000.00,027.7,025.3,000.0,035.8,029.1,18.0,0000.0,0001.49,0005.53,0000.88
2023-09-08 00:10:00,SystemResetWarning,0831.9,5.02,000.00,027.6,024.2,000.0,035.8,028.8,17.9,0000.0,0001.62,0006.45,0000.92
2023-09-08 00:11:00,SystemResetWarning,0831.9,5.00,000.00,027.5,024.3,000.0,035.8,028.9,17.5,0000.0,0001.72,0007.68,0000.95
2023-09-08 00:12:00,SystemResetWarning,0832.0,4.99,000.00,027.5,024.7,000.0,035.7,028.9,17.4,0000.0,0001.86,0007.96,0001.00
2023-09-08 00:13:00,SystemResetWarning,0832.0,5.01,000.00,027.5,025.1,000.0,035.7,029.0,17.3,0000.0,0002.00,0008.27,0001.06
2023-09-08 00:14:00,SystemResetWarning,0832.1,5.01,000.00,027.5,025.6,000.0,035.8,029.2,17.5,0000.0,0002.26,0008.98,0001.13
2023-09-08 00:15:00,SystemResetWarning,0832.1,5.00,000.00,027.6,026.0,000.0,035.8,029.3,17.1,0000.0,0002.49,0010.24,0001.20
2023-09-08 00:16:00,SystemResetWarning,0832.1,5.00,000.00,027.7,026.3,000.0,035.8,029.4,17.4,0000.0,0002.68,0010.82,0001.24
2023-09-08 00:17:00,SystemResetWarning,0832.1,4.99,000.00,027.7,026.1,000.0,035.8,029.3,17.3,0000.0,0002.77,0010.15,0001.28
2023-09-08 00:18:00,SystemResetWarning,0832.1,4.99,000.00,027.6,024.6,000.0,035.8,028.9,17.4,0000.0,0003.01,0010.54,0001.32
2023-09-08 00:19:00,SystemResetWarning,0832.1,5.01,000.00,027.5,024.1,000.0,035.7,028.8,18.1,0000.0,0003.13,0011.22,0001.36
2023-09-08 00:20:00,SystemResetWarning,0832.1,5.01,000.00,027.5,024.4,000.0,035.7,028.9,18.3,0000.0,0003.25,0012.37,0001.41
2023-09-08 00:21:00,SystemResetWarning,0832.2,5.00,000.00,027.4,024.8,000.0,035.7,028.9,18.4,0000.0,0003.36,0013.09,0001.45
2023-09-08 00:22:00,SystemResetWarning,0832.2,5.00,000.00,027.5,025.2,000.0,035.7,029.1,18.2,0000.0,0003.45,0013.35,0001.51
2023-09-08 00:23:00,SystemResetWarning,0832.2,5.00,000.00,027.5,025.7,000.0,035.7,029.2,17.5,0000.0,0003.46,0013.58,0001.53
2023-09-08 00:24:00,SystemResetWarning,0832.2,5.00,000.00,027.6,026.1,000.0,035.8,029.3,17.6,0000.0,0003.50,0015.24,0001.54
2023-09-08 00:25:00,SystemResetWarning,0832.2,4.99,000.00,027.6,026.4,000.0,035.8,029.5,17.5,0000.0,0003.46,0015.80,0001.55
2023-09-08 00:26:00,SystemResetWarning,0832.2,4.99,000.00,027.7,026.2,000.0,035.8,029.4,17.0,0000.0,0003.49,0015.68,0001.56
2023-09-08 00:27:00,SystemResetWarning,0832.2,5.00,000.00,027.6,024.7,000.0,035.8,028.9,16.7,0000.0,0003.52,0015.36,0001.58
2023-09-08 00:28:00,SystemResetWarning,0832.2,5.02,000.00,027.5,024.1,000.0,035.7,028.8,16.6,0000.0,0003.52,0015.96,0001.58
2023-09-08 00:29:00,SystemResetWarning,0832.2,5.01,000.00,027.5,024.4,000.0,035.7,028.8,16.7,0000.0,0003.47,0016.24,0001.59
2023-09-08 00:30:00,SystemResetWarning,0832.2,5.00,000.00,027.4,024.7,000.0,035.7,028.9,16.8,0000.0,0003.47,0016.02,0001.60
2023-09-08 00:31:00,SystemResetWarning,0832.2,5.00,000.00,027.5,025.2,000.0,035.7,029.0,16.8,0000.0,0003.47,0015.17,0001.61
2023-09-08 00:32:00,SystemResetWarning,0832.2,5.00,000.00,027.5,025.6,000.0,035.7,029.2,16.9,0000.0,0003.43,0014.15,0001.60
2023-09-08 00:33:00,SystemResetWarning,0832.2,5.00,000.00,027.6,026.0,000.0,035.8,029.3,17.0,0000.0,0003.40,0014.08,0001.60
2023-09-08 00:34:00,SystemResetWarning,0832.2,5.00,000.00,027.6,026.4,000.0,035.8,029.4,16.9,0000.0,0003.46,0013.83,0001.63
2023-09-08 00:35:00,SystemResetWarning,0832.2,4.99,000.00,027.7,026.2,000.0,035.8,029.4,17.0,0000.0,0003.54,0012.79,0001.67
2023-09-08 00:36:00,SystemResetWarning,0832.2,4.99,000.00,027.6,024.8,000.0,035.8,028.9,16.9,0000.0,0003.59,0011.83,0001.67
2023-09-08 00:37:00,SystemResetWarning,0832.2,5.01,000.00,027.5,024.0,000.0,035.7,028.7,16.7,0000.0,0003.60,0012.01,0001.67
2023-09-08 00:38:00,SystemResetWarning,0832.2,5.01,000.00,027.4,024.3,000.0,035.7,028.8,17.0,0000.0,0003.63,0012.31,0001.67
2023-09-08 00:39:00,SystemResetWarning,0832.2,5.00,000.00,027.4,024.7,000.0,035.7,028.8,17.3,0000.0,0003.66,0013.04,0001.67
2023-09-08 00:40:00,SystemResetWarning,0832.3,5.00,000.00,027.4,025.1,000.0,035.7,029.0,17.2,0000.0,0003.77,0014.16,0001.67
2023-09-08 00:41:00,SystemResetWarning,0832.3,5.00,000.00,027.5,025.6,000.0,035.7,029.2,17.1,0000.0,0003.80,0015.32,0001.68
2023-09-08 00:42:00,SystemResetWarning,0832.3,5.01,000.00,027.5,026.0,000.0,035.7,029.3,17.1,0000.0,0003.81,0016.28,0001.68
2023-09-08 00:43:00,SystemResetWarning,0832.3,5.00,000.00,027.6,026.3,000.0,035.8,029.4,17.0,0000.0,0003.82,0017.58,0001.67
2023-09-08 00:44:00,SystemResetWarning,0832.3,4.99,000.00,027.7,026.2,000.0,035.8,029.4,16.9,0000.0,0003.86,0017.99,0001.67
2023-09-08 00:45:00,SystemResetWarning,0832.3,5.00,000.00,027.6,024.7,000.0,035.7,029.0,16.9,0000.0,0003.90,0020.99,0001.65
2023-09-08 00:46:00,SystemResetWarning,0832.3,5.01,000.00,027.5,023.9,000.0,035.7,028.8,16.7,0000.0,0003.91,0022.46,0001.63
2023-09-08 00:47:00,SystemResetWarning,0832.3,5.00,000.00,027.4,024.2,000.0,035.7,028.8,16.6,0000.0,0003.92,0023.93,0001.62
2023-09-08 00:48:00,SystemResetWarning,0832.3,5.00,000.00,027.4,024.6,000.0,035.7,028.9,17.0,0000.0,0003.95,0024.10,0001.63
2023-09-08 00:49:00,SystemResetWarning,0832.3,4.99,000.00,027.4,025.0,000.0,035.7,029.0,16.9,0000.0,0003.93,0024.55,0001.63
2023-09-08 00:50:00,SystemResetWarning,0832.4,5.00,000.00,027.5,025.5,000.0,035.7,029.1,16.9,0000.0,0003.88,0024.55,0001.61
2023-09-08 00:51:00,SystemResetWarning,0832.5,5.00,000.00,027.5,025.9,000.0,035.7,029.2,16.8,0000.0,0003.82,0023.36,0001.62
2023-09-08 00:52:00,SystemResetWarning,0832.5,5.00,000.00,027.6,026.2,000.0,035.7,029.4,16.8,0000.0,0003.81,0022.72,0001.60
2023-09-08 00:53:00,SystemResetWarning,0832.5,5.00,000.00,027.7,026.5,000.0,035.8,029.5,16.6,0000.0,0003.74,0023.22,0001.61
2023-09-08 00:54:00,SystemResetWarning,0832.5,5.00,000.00,027.7,026.5,000.0,035.8,029.5,16.6,0000.0,0003.71,0022.78,0001.61
2023-09-08 00:55:00,SystemResetWarning,0832.5,4.98,000.00,027.7,025.2,000.0,035.8,029.0,16.6,0000.0,0003.68,0022.83,0001.62
2023-09-08 00:56:00,SystemResetWarning,0832.5,5.02,000.00,027.5,024.1,000.0,035.7,028.8,16.9,0000.0,0003.65,0019.89,0001.64
2023-09-08 00:57:00,SystemResetWarning,0832.5,5.00,000.00,027.5,024.3,000.0,035.7,028.8,17.0,0000.0,0003.54,0018.15,0001.64
2023-09-08 00:58:00,SystemResetWarning,0832.5,5.00,000.00,027.5,024.6,000.0,035.7,028.9,17.0,0000.0,0003.52,0017.27,0001.65
2023-09-08 00:59:00,SystemResetWarning,0832.5,5.00,000.00,027.5,025.0,000.0,035.7,029.0,17.1,0000.0,0003.44,0016.97,0001.65
